Location: Alessandria
(44.9000°N, 8.6170°E)
Time: 17:29:07
(UTC+02:00)

ISS - Pass Details

Date: 14 May 2021
Orbit: 417 x 422 km, 51.6° (Epoch: 18 June)

Event Time Altitude Azimuth Distance (km) Brightness Sun altitude
Rises 22:46:50 0° 231° (SW) 2,353 0.0 -17.1°
Reaches altitude 10° 22:48:55 10° 228° (SW) 1,493 -1.0 -17.4°
Maximum altitude 22:52:15 64° 146° (SE) 467 -3.9 -17.7°
Enters shadow 22:54:43 17° 67° (ENE) 1,157 -1.7 -18.0°
Exits shadow 22:56:36 - 63° (ENE) 1,919 -0.5 -18.2°
Sets 22:57:42 0° 62° (ENE) 2,373 0.0 -18.3°
